DG9BJA-13 Weather Reports


time (UTC)temp
C
wind
direction
speed
KPH
gust
KPH
rain 1hr
cm
rain 24hr
cm
rain mn
cm
humidity
%
barometer
mb
20260502130617 25 248 14.5 27.4 0.00 0.00 0.00 40 1016.3
20260502123617 25 203 16.1 22.5 0.00 0.00 0.00 39 1016.7
20260502122617 25 248 12.9 17.7 0.00 0.00 0.00 40 1016.8
20260502121617 25 203 17.7 24.1 0.00 0.00 0.00 38 1016.8
20260502120617 25 248 14.5 20.9 0.00 0.00 0.00 38 1016.9
20260502115617 25 203 8.0 19.3 0.00 0.00 0.00 37 1017.1
20260502114617 25 270 12.9 17.7 0.00 0.00 0.00 37 1017.1
20260502113617 25 225 11.3 19.3 0.00 0.00 0.00 35 1017.3
20260502112617 25 248 8.0 16.1 0.00 0.00 0.00 37 1017.3
20260502111616 25 248 14.5 20.9 0.00 0.00 0.00 37 1017.3
20260502110617 25 225 6.4 14.5 0.00 0.00 0.00 36 1017.5
20260502105616 25 248 9.7 16.1 0.00 0.00 0.00 35 1017.6
20260502104616 25 248 14.5 22.5 0.00 0.00 0.00 34 1017.6
20260502103617 24 270 11.3 24.1 0.00 0.00 0.00 34 1017.7
20260502102616 24 180 11.3 20.9 0.00 0.00 0.00 33 1017.8
20260502101616 24 180 12.9 25.7 0.00 0.00 0.00 30 1017.8
20260502100616 23 180 11.3 17.7 0.00 0.00 0.00 32 1017.9
20260502090616 22 248 6.4 11.3 0.00 0.00 0.00 39 1018.5
20260502070616 18 180 9.7 16.1 0.00 0.00 0.00 49 1018.9
20260502065615 17 180 11.3 16.1 0.00 0.00 0.00 49 1019.0
20260502064615 17 158 9.7 14.5 0.00 0.00 0.00 51 1019.0
20260502063616 16 180 6.4 11.3 0.00 0.00 0.00 52 1019.1
20260502062615 16 158 8.0 11.3 0.00 0.00 0.00 54 1019.1
20260502061615 16 180 8.0 11.3 0.00 0.00 0.00 54 1019.1
20260502060616 15 180 9.7 14.5 0.00 0.00 0.00 55 1019.3
20260502055616 15 180 8.0 9.7 0.00 0.00 0.00 55 1019.3
20260502054615 15 158 6.4 9.7 0.00 0.00 0.00 55 1019.3
20260502053615 15 158 6.4 8.0 0.00 0.00 0.00 55 1019.4
20260502052615 15 180 6.4 8.0 0.00 0.00 0.00 56 1019.4
20260502051615 15 180 8.0 16.1 0.00 0.00 0.00 57 1019.4
20260502050615 14 180 8.0 9.7 0.00 0.00 0.00 59 1019.4
20260502045615 13 180 6.4 8.0 0.00 0.00 0.00 60 1019.4
20260502044615 13 180 6.4 11.3 0.00 0.00 0.00 61 1019.3
20260502043617 13 180 4.8 8.0 0.00 0.00 0.00 62 1019.3
20260502042617 12 158 6.4 8.0 0.00 0.00 0.00 63 1019.4
20260502041617 12 158 8.0 11.3 0.00 0.00 0.00 63 1019.4
20260502040617 12 180 4.8 8.0 0.00 0.00 0.00 64 1019.4
20260502035617 12 158 8.0 9.7 0.00 0.00 0.00 64 1019.5
20260502034617 12 158 4.8 6.4 0.00 0.00 0.00 64 1019.5
20260502033617 12 158 8.0 12.9 0.00 0.00 0.00 65 1019.8
20260502032617 12 180 8.0 14.5 0.00 0.00 0.00 66 1019.9
20260502031617 12 158 4.8 6.4 0.00 0.00 0.00 66 1019.9
20260502030617 12 158 6.4 9.7 0.00 0.00 0.00 65 1019.9
20260502025617 12 158 4.8 8.0 0.00 0.00 0.00 65 1020.0
20260502024617 13 158 6.4 8.0 0.00 0.00 0.00 65 1020.0
20260502023617 13 180 6.4 8.0 0.00 0.00 0.00 65 1020.2
20260502022617 13 180 6.4 9.7 0.00 0.00 0.00 65 1020.3
20260502021617 13 158 4.8 8.0 0.00 0.00 0.00 65 1020.3
20260502020616 13 180 4.8 6.4 0.00 0.00 0.00 65 1020.4
20260502015616 13 158 6.4 8.0 0.00 0.00 0.00 64 1020.5
20260502014617 13 158 4.8 6.4 0.00 0.00 0.00 64 1020.5
20260502013617 13 158 6.4 11.3 0.00 0.00 0.00 63 1020.7
20260502012616 13 158 6.4 9.7 0.00 0.00 0.00 63 1020.9
20260502011617 13 158 6.4 9.7 0.00 0.00 0.00 63 1020.9
20260502010616 13 180 8.0 9.7 0.00 0.00 0.00 64 1020.9
20260502005616 13 158 6.4 9.7 0.00 0.00 0.00 64 1021.2
20260502004616 13 158 6.4 9.7 0.00 0.00 0.00 64 1021.2
20260502003616 13 135 8.0 9.7 0.00 0.00 0.00 64 1021.4
20260502002616 13 158 4.8 8.0 0.00 0.00 0.00 64 1021.4
20260502001616 13 135 6.4 9.7 0.00 0.00 0.00 64 1021.4
20260502000616 13 158 6.4 9.7 0.00 0.00 0.00 63 1021.4
20260501235616 14 158 4.8 6.4 0.00 0.00 0.00 63 1021.5
20260501234616 14 158 6.4 11.3 0.00 0.00 0.00 63 1021.5
20260501233616 14 158 6.4 11.3 0.00 0.00 0.00 62 1021.7
20260501232616 15 158 8.0 9.7 0.00 0.00 0.00 62 1021.9
20260501231616 15 158 8.0 11.3 0.00 0.00 0.00 61 1021.9
20260501230616 15 158 4.8 8.0 0.00 0.00 0.00 61 1021.9
20260501225616 15 158 6.4 11.3 0.00 0.00 0.00 60 1021.9
20260501224616 15 158 8.0 11.3 0.00 0.00 0.00 60 1022.0
20260501223616 15 158 6.4 9.7 0.00 0.00 0.00 60 1021.9
20260501222616 15 158 9.7 12.9 0.00 0.00 0.00 59 1021.9
20260501221616 15 158 4.8 8.0 0.00 0.00 0.00 59 1021.9
20260501220616 15 158 4.8 6.4 0.00 0.00 0.00 58 1022.0
20260501215615 15 158 4.8 8.0 0.00 0.00 0.00 57 1021.9
20260501214615 16 158 6.4 9.7 0.00 0.00 0.00 57 1021.9
20260501213615 16 135 4.8 8.0 0.00 0.00 0.00 57 1021.9
20260501212616 16 158 4.8 6.4 0.00 0.00 0.00 57 1022.0
20260501211617 16 158 4.8 4.8 0.00 0.00 0.00 56 1022.0
20260501210617 16 135 1.6 3.2 0.00 0.00 0.00 56 1022.1
20260501205617 16 113 4.8 6.4 0.00 0.00 0.00 55 1022.1
20260501204617 16 113 6.4 8.0 0.00 0.00 0.00 54 1022.1
20260501203617 16 113 4.8 8.0 0.00 0.00 0.00 54 1022.3
20260501202617 17 113 3.2 6.4 0.00 0.00 0.00 54 1022.4
20260501201617 17 158 4.8 6.4 0.00 0.00 0.00 53 1022.4
20260501200617 17 158 3.2 6.4 0.00 0.00 0.00 53 1022.4
20260501195617 17 113 1.6 4.8 0.00 0.00 0.00 52 1022.5
20260501194617 17 113 1.6 3.2 0.00 0.00 0.00 51 1022.5
20260501193617 18 113 3.2 6.4 0.00 0.00 0.00 50 1022.5
20260501192617 18 113 1.6 3.2 0.00 0.00 0.00 49 1022.4
20260501191617 18 135 4.8 9.7 0.00 0.00 0.00 48 1022.5
20260501190617 19 135 4.8 6.4 0.00 0.00 0.00 47 1022.5
20260501185617 19 135 3.2 6.4 0.00 0.00 0.00 46 1022.5
20260501184616 20 135 3.2 6.4 0.00 0.00 0.00 45 1022.5
20260501183616 20 90 6.4 14.5 0.00 0.00 0.00 45 1022.5
20260501182617 20 113 3.2 9.7 0.00 0.00 0.00 43 1022.5
20260501181617 21 68 4.8 9.7 0.00 0.00 0.00 43 1022.5
20260501180617 21 45 4.8 8.0 0.00 0.00 0.00 41 1022.5
20260501175616 21 90 6.4 14.5 0.00 0.00 0.00 40 1022.4
20260501173616 22 90 4.8 9.7 0.00 0.00 0.00 38 1022.4
20260501172616 22 135 6.4 9.7 0.00 0.00 0.00 38 1022.5
20260501171616 22 135 8.0 14.5 0.00 0.00 0.00 38 1022.5
20260501170616 22 113 9.7 17.7 0.00 0.00 0.00 36 1022.9
20260501165616 22 135 11.3 17.7 0.00 0.00 0.00 36 1023.0
20260501164616 22 158 9.7 16.1 0.00 0.00 0.00 37 1023.0
20260501163616 22 158 11.3 16.1 0.00 0.00 0.00 37 1023.0
20260501162616 23 158 9.7 17.7 0.00 0.00 0.00 36 1023.2
20260501161616 23 158 8.0 16.1 0.00 0.00 0.00 36 1023.2
20260501160616 22 158 9.7 19.3 0.00 0.00 0.00 36 1023.4
20260501155616 23 113 9.7 14.5 0.00 0.00 0.00 35 1023.6
20260501154616 23 158 8.0 11.3 0.00 0.00 0.00 36 1023.6
20260501153616 23 135 12.9 22.5 0.00 0.00 0.00 36 1023.6
20260501152616 23 135 12.9 17.7 0.00 0.00 0.00 36 1023.9
20260501151616 23 135 11.3 20.9 0.00 0.00 0.00 35 1023.9
20260501150616 23 158 12.9 27.4 0.00 0.00 0.00 35 1024.0
20260501145616 23 158 12.9 19.3 0.00 0.00 0.00 35 1024.1
20260501144616 23 158 16.1 24.1 0.00 0.00 0.00 36 1024.1
20260501143616 23 113 11.3 24.1 0.00 0.00 0.00 37 1024.3
20260501142616 23 113 12.9 25.7 0.00 0.00 0.00 36 1024.6
20260501141616 23 135 9.7 17.7 0.00 0.00 0.00 36 1024.6
20260501140616 23 158 12.9 20.9 0.00 0.00 0.00 36 1024.6
20260501135615 23 158 11.3 20.9 0.00 0.00 0.00 36 1024.8
20260501134616 23 180 14.5 22.5 0.00 0.00 0.00 37 1024.8
20260501133615 23 158 8.0 16.1 0.00 0.00 0.00 37 1025.1